Find Starlink 5706

NORAD ID: 55488 Int'l Des: 2023-015 Owner: SPXS Country: US Constellation: starlink operational
LEOCIRCULAR

Live Position

Loading 3D Globe...

About Starlink 5706

Description loading...

Upcoming Passes

Passes for default location (London). Set your location on the main map for personalized predictions.

Altitude History

Loading altitude history...

Two-Line Element Set

1 55488U 23015AR 26106.73417435 -.00055318 00000-0 -20445-2 0 9991
2 55488 43.0025 124.8703 0001364 47.2395 312.8571 15.27115818176410
Epoch: Apr 16, 2026 • Age: 7 hours

Current Status

Altitude 484.0 km
Velocity 7.63 km/s
Sub-Earth Point 19.71°N, 67.3°E
Launch Date Feb 2, 2023
Age 3.2 years
Type internet

Technical Details

Classification Payload
Mass 305.00 kg
Dry Mass 290.00 kg
Total Mass 305.00 kg
Length 0.20 m
Diameter 2.80 m
Span 9.00 m
Shape Box + pan
Manufacturer SPXS
Bus Type Starlink
Phase Status In Orbit
Owner/State SPXS/US

Most Searched